Regional Weather Roundup
Issued by NWS Jackson, KY

Home | Current Version | Previous Version | Graphics & Text | Print | Product List | Glossary On
Versions: 1 2 3 4 5 6 7 8 9 10 11 12 13 14 15 16 17 18 19 20 21 22 23 24 25 26 27 28
000
ASUS43 KJKL 301910
RWRJKL

EAST KENTUCKY HOURLY WEATHER ROUNDUP
NATIONAL WEATHER SERVICE JACKSON KY
300 PM EDT FRI SEP 30 2016

NOTE: "FAIR" INDICATES FEW OR NO CLOUDS BELOW 12,000 FEET WITH
NO SIGNIFICANT WEATHER AND/OR OBSTRUCTIONS TO VISIBILITY.

* THESE REPORTS ARE NOT UNDER NWS QUALITY CONTROL AND MAY NOT
  REPORT WEATHER SUCH AS PRECIPITATION AND FOG.

KYZ079-080-083-085-087-088-110-112-115-119-120-302000
...EASTERN KENTUCKY...

CITY           SKY/WX    TMP DP  RH WIND       PRES   REMARKS
JACKSON        PTSUNNY   63  52  67 CALM      30.03F
LONDON         MOSUNNY   62  47  57 W7        30.04F
SOMERSET*      PTSUNNY   61  50  67 S5        30.04F
MONTICELLO*    CLOUDY    65  50  58 W14       30.05F
WILLIAMSBURG*  CLEAR     63  52  67 N6        30.04F
MIDDLESBORO*   PTSUNNY   68  51  55 N8        30.02F
HARLAN APT*    CLOUDY    64  46  52 SE3       30.02F
PIKE CO APT*   CLOUDY    63  54  73 CALM      30.02F
BIG SANDY APT* MOCLDY    64  56  74 CALM      30.02F
MOREHEAD APT*  MOCLDY    63  52  67 VRB5      30.05F
ASHLAND*       CLOUDY    64  57  77 CALM      29.99F
$$

KYZ035-036-041-042-044-050-067-078-099-302000
...CENTRAL KENTUCKY...

CITY           SKY/WX    TMP DP  RH WIND       PRES   REMARKS
MT STERLING*   PTSUNNY   63  50  63 W3        30.04F
FLEMING/MASON* CLOUDY    62  52  70 SW5       30.04F
DANVILLE*      CLOUDY    61  50  67 SW6       30.05F
LEXINGTON      PTSUNNY   63  51  65 SW8       30.03F
FRANKFORT      PTSUNNY   64  52  64 SW8       30.01F
LOUISVILLE     PTSUNNY   63  53  70 CALM      30.02F
LEBANON*       CLOUDY    63  52  67 S7        30.03F
GLASGOW*       CLOUDY   N/A N/A N/A S6        30.03F
BOWLING GREEN  CLOUDY    62  57  83 VRB5      30.01F
$$

KYZ091>093-OHZ055-061-077-WVZ005-015-034-035-042-302000
...SOUTHERN OHIO/WEST VIRGINIA...

CITY           SKY/WX    TMP DP  RH WIND       PRES   REMARKS
COVINGTON      CLOUDY    65  56  72 CALM      30.00F
COLUMBUS       CLOUDY    63  62  97 NE9       30.01R
DAYTON         CLOUDY    62  58  86 E12       30.01F
WILMINGTON     CLOUDY    63  58  83 SW5       30.01F
HUNTINGTON     CLOUDY    64  57  78 W3        30.00F
CHARLESTON     CLOUDY    64  59  83 SW10      29.99S
PINEVILLE*     CLOUDY    63  55  77 MISG      30.06F
BECKLEY        MOSUNNY   71  57  61 E9G24     29.99F
BLUEFIELD      MOSUNNY   71  51  49 S9G18     30.02F
LOGAN CO APT*  CLOUDY    59  59 100 CALM      30.02F
$$

VAZ002-007-008-TNZ017-027-036-066-071-302000
...SOUTHWEST VIRGINIA/EAST TENNESSEE...

CITY           SKY/WX    TMP DP  RH WIND       PRES   REMARKS
WISE*          MOSUNNY   66  43  42 S6G16     30.04F
JONESVILLE*      N/A     68  46  45 SW5       30.04F
ABINGDON*      CLOUDY    62  56  79 W6        30.03F
BRISTOL        MOSUNNY   67  53  61 VRB6      30.02F
MORRISTOWN*    MOCLDY    70  46  43 VRB6      30.01S
SEVIERVILLE*   CLEAR     73  46  38 W6        30.01S
KNOXVILLE      MOSUNNY   70  47  43 W8        30.02F
OAK RIDGE      SUNNY     74  45  35 MISG      30.03F
CROSSVILLE     CLOUDY    62  47  57 W13       30.06F
NASHVILLE      LGT RAIN  64  52  64 SW7       30.05F
$$

...KEY TO REMARKS...
VSB - VISIBILITY IN MILES
WCI - WIND CHILL INDEX
HX  - HEAT INDEX

$$




USA.gov is the U.S. government's official web portal to all federal, state and local government web resources and services.